Year,Month,Day,Hour,Minute,Value (Times are PST for temperature in C)
2018,07,16,00,00,19.70
2018,07,16,00,01,19.60
2018,07,16,00,02,19.60
2018,07,16,00,03,19.60
2018,07,16,00,04,19.60
2018,07,16,00,05,19.50
2018,07,16,00,06,19.50
2018,07,16,00,07,19.40
2018,07,16,00,08,19.40
2018,07,16,00,09,19.40
2018,07,16,00,10,19.40
2018,07,16,00,11,19.30
2018,07,16,00,12,19.30
2018,07,16,00,13,19.30
2018,07,16,00,14,19.30
2018,07,16,00,15,19.20
2018,07,16,00,16,19.20
2018,07,16,00,17,19.20
2018,07,16,00,18,19.20
2018,07,16,00,19,19.20
2018,07,16,00,20,19.20
2018,07,16,00,21,19.20
2018,07,16,00,22,19.20
2018,07,16,00,23,19.20
2018,07,16,00,24,19.20
2018,07,16,00,25,19.10
2018,07,16,00,26,19.10
2018,07,16,00,27,19.10
2018,07,16,00,28,19.10
2018,07,16,00,29,19.10
2018,07,16,00,30,19.00
2018,07,16,00,31,19.00
2018,07,16,00,32,18.90
2018,07,16,00,33,18.90
2018,07,16,00,34,18.90
2018,07,16,00,35,18.80
2018,07,16,00,36,18.80
2018,07,16,00,37,18.80
2018,07,16,00,38,18.70
2018,07,16,00,39,18.70
2018,07,16,00,40,18.60
2018,07,16,00,41,18.60
2018,07,16,00,42,18.60
2018,07,16,00,43,18.50
2018,07,16,00,44,18.50
2018,07,16,00,45,18.50
2018,07,16,00,46,18.40
2018,07,16,00,47,18.40
2018,07,16,00,48,18.40
2018,07,16,00,49,18.40
2018,07,16,00,50,18.30
2018,07,16,00,51,18.30
2018,07,16,00,52,18.30
2018,07,16,00,53,18.30
2018,07,16,00,54,18.20
2018,07,16,00,55,18.20
2018,07,16,00,56,18.20
2018,07,16,00,57,18.10
2018,07,16,00,58,18.10
2018,07,16,00,59,18.10
2018,07,16,01,00,18.00
2018,07,16,01,01,18.00
2018,07,16,01,02,18.00
2018,07,16,01,03,18.00
2018,07,16,01,04,17.90
2018,07,16,01,05,17.90
2018,07,16,01,06,17.90
2018,07,16,01,07,17.90
2018,07,16,01,08,17.90
2018,07,16,01,09,17.90
2018,07,16,01,10,17.90
2018,07,16,01,11,17.90
2018,07,16,01,12,18.00
2018,07,16,01,13,18.00
2018,07,16,01,14,18.00
2018,07,16,01,15,18.00
2018,07,16,01,16,18.00
2018,07,16,01,17,18.00
2018,07,16,01,18,18.00
2018,07,16,01,19,18.00
2018,07,16,01,20,18.00
2018,07,16,01,21,18.00
2018,07,16,01,22,18.00
2018,07,16,01,23,18.00
2018,07,16,01,24,18.00
2018,07,16,01,25,17.90
2018,07,16,01,26,17.90
2018,07,16,01,27,17.90
2018,07,16,01,28,17.80
2018,07,16,01,29,17.80
2018,07,16,01,30,17.80
2018,07,16,01,31,17.80
2018,07,16,01,32,17.80
2018,07,16,01,33,17.80
2018,07,16,01,34,17.80
2018,07,16,01,35,17.70
2018,07,16,01,36,17.70
2018,07,16,01,37,17.70
2018,07,16,01,38,17.70
2018,07,16,01,39,17.70
2018,07,16,01,40,17.60
2018,07,16,01,41,17.60
2018,07,16,01,42,17.60
2018,07,16,01,43,17.60
2018,07,16,01,44,17.60
2018,07,16,01,45,17.60
2018,07,16,01,46,17.60
2018,07,16,01,47,17.60
2018,07,16,01,48,17.60
2018,07,16,01,49,17.60
2018,07,16,01,50,17.60
2018,07,16,01,51,17.50
2018,07,16,01,52,17.50
2018,07,16,01,53,17.50
2018,07,16,01,54,17.50
2018,07,16,01,55,17.40
2018,07,16,01,56,17.40
2018,07,16,01,57,17.40
2018,07,16,01,58,17.40
2018,07,16,01,59,17.40
2018,07,16,02,00,17.40
2018,07,16,02,01,17.30
2018,07,16,02,02,17.30
2018,07,16,02,03,17.30
2018,07,16,02,04,17.30
2018,07,16,02,05,17.30
2018,07,16,02,06,17.20
2018,07,16,02,07,17.20
2018,07,16,02,08,17.20
2018,07,16,02,09,17.10
2018,07,16,02,10,17.10
2018,07,16,02,11,17.10
2018,07,16,02,12,17.10
2018,07,16,02,13,17.00
2018,07,16,02,14,17.00
2018,07,16,02,15,16.90
2018,07,16,02,16,16.90
2018,07,16,02,17,16.90
2018,07,16,02,18,16.80
2018,07,16,02,19,16.80
2018,07,16,02,20,16.80
2018,07,16,02,21,16.80
2018,07,16,02,22,16.70
2018,07,16,02,23,16.70
2018,07,16,02,24,16.70
2018,07,16,02,25,16.70
2018,07,16,02,26,16.60
2018,07,16,02,27,16.60
2018,07,16,02,28,16.60
2018,07,16,02,29,16.50
2018,07,16,02,30,16.50
2018,07,16,02,31,16.50
2018,07,16,02,32,16.40
2018,07,16,02,33,16.40
2018,07,16,02,34,16.40
2018,07,16,02,35,16.40
2018,07,16,02,36,16.40
2018,07,16,02,37,16.40
2018,07,16,02,38,16.30
2018,07,16,02,39,16.30
2018,07,16,02,40,16.30
2018,07,16,02,41,16.30
2018,07,16,02,42,16.20
2018,07,16,02,43,16.20
2018,07,16,02,44,16.20
2018,07,16,02,45,16.20
2018,07,16,02,46,16.20
2018,07,16,02,47,16.10
2018,07,16,02,48,16.10
2018,07,16,02,49,16.10
2018,07,16,02,50,16.10
2018,07,16,02,51,16.10
2018,07,16,02,52,16.10
2018,07,16,02,53,16.10
2018,07,16,02,54,16.10
2018,07,16,02,55,16.10
2018,07,16,02,56,16.00
2018,07,16,02,57,16.00
2018,07,16,02,58,16.00
2018,07,16,02,59,16.00
2018,07,16,03,00,15.90
2018,07,16,03,01,15.90
2018,07,16,03,02,15.90
2018,07,16,03,03,15.90
2018,07,16,03,04,15.90
2018,07,16,03,05,15.90
2018,07,16,03,06,15.90
2018,07,16,03,07,15.90
2018,07,16,03,08,15.90
2018,07,16,03,09,15.80
2018,07,16,03,10,15.80
2018,07,16,03,11,15.80
2018,07,16,03,12,15.80
2018,07,16,03,13,15.80
2018,07,16,03,14,15.70
2018,07,16,03,15,15.70
2018,07,16,03,16,15.70
2018,07,16,03,17,15.70
2018,07,16,03,18,15.70
2018,07,16,03,19,15.60
2018,07,16,03,20,15.60
2018,07,16,03,21,15.60
2018,07,16,03,22,15.50
2018,07,16,03,23,15.50
2018,07,16,03,24,15.50
2018,07,16,03,25,15.50
2018,07,16,03,26,15.40
2018,07,16,03,27,15.40
2018,07,16,03,28,15.40
2018,07,16,03,29,15.40
2018,07,16,03,30,15.30
2018,07,16,03,31,15.30
2018,07,16,03,32,15.30
2018,07,16,03,33,15.20
2018,07,16,03,34,15.20
2018,07,16,03,35,15.20
2018,07,16,03,36,15.10
2018,07,16,03,37,15.10
2018,07,16,03,38,15.00
2018,07,16,03,39,15.00
2018,07,16,03,40,15.00
2018,07,16,03,41,14.90
2018,07,16,03,42,14.90
2018,07,16,03,43,14.90
2018,07,16,03,44,14.80
2018,07,16,03,45,14.80
2018,07,16,03,46,14.80
2018,07,16,03,47,14.70
2018,07,16,03,48,14.70
2018,07,16,03,49,14.70
2018,07,16,03,50,14.70
2018,07,16,03,51,14.60
2018,07,16,03,52,14.60
2018,07,16,03,53,14.60
2018,07,16,03,54,14.50
2018,07,16,03,55,14.50
2018,07,16,03,56,14.50
2018,07,16,03,57,14.40
2018,07,16,03,58,14.40
2018,07,16,03,59,14.40
2018,07,16,04,00,14.40
2018,07,16,04,01,14.40
2018,07,16,04,02,14.30
2018,07,16,04,03,14.30
2018,07,16,05,04,14.10
2018,07,16,05,05,14.10
2018,07,16,05,06,14.20
2018,07,16,05,07,14.20
2018,07,16,05,08,14.20
2018,07,16,05,09,14.20
2018,07,16,05,10,14.20
2018,07,16,05,11,14.20
2018,07,16,05,12,14.20
2018,07,16,05,13,14.20
2018,07,16,05,14,14.20
2018,07,16,05,15,14.20
2018,07,16,05,16,14.20
2018,07,16,05,17,14.20
2018,07,16,05,18,14.20
2018,07,16,05,19,14.20
2018,07,16,05,20,14.20
2018,07,16,05,21,14.20
2018,07,16,05,22,14.20
2018,07,16,05,23,14.20
2018,07,16,05,24,14.20
2018,07,16,05,25,14.20
2018,07,16,05,26,14.20
2018,07,16,05,27,14.20
2018,07,16,05,28,14.20
2018,07,16,05,29,14.20
2018,07,16,05,30,14.20
2018,07,16,05,31,14.20
2018,07,16,05,32,14.20
2018,07,16,05,33,14.20
2018,07,16,05,34,14.20
2018,07,16,05,35,14.20
2018,07,16,05,36,14.20
2018,07,16,05,37,14.20
2018,07,16,05,38,14.20
2018,07,16,05,39,14.20
2018,07,16,05,40,14.20
2018,07,16,05,41,14.20
2018,07,16,05,42,14.20
2018,07,16,05,43,14.20
2018,07,16,05,44,14.20
2018,07,16,05,45,14.20
2018,07,16,05,46,14.20
2018,07,16,05,47,14.20
2018,07,16,05,48,14.20
2018,07,16,05,49,14.20
2018,07,16,05,50,14.20
2018,07,16,05,51,14.20
2018,07,16,05,52,14.20
2018,07,16,05,53,14.20
2018,07,16,05,54,14.20
2018,07,16,05,55,14.20
2018,07,16,05,56,14.20
2018,07,16,05,57,14.20
2018,07,16,05,58,14.20
2018,07,16,05,59,14.20
2018,07,16,06,00,14.20
2018,07,16,06,01,14.20
2018,07,16,06,02,14.20
2018,07,16,06,03,14.20
2018,07,16,06,04,14.20
2018,07,16,06,05,14.30
2018,07,16,06,06,14.30
2018,07,16,06,07,14.30
2018,07,16,06,08,14.30
2018,07,16,06,09,14.30
2018,07,16,06,10,14.30
2018,07,16,06,11,14.30
2018,07,16,06,12,14.30
2018,07,16,06,13,14.40
2018,07,16,06,14,14.40
2018,07,16,06,15,14.40
2018,07,16,06,16,14.40
2018,07,16,06,17,14.40
2018,07,16,06,18,14.40
2018,07,16,06,19,14.50
2018,07,16,06,20,14.50
2018,07,16,06,21,14.50
2018,07,16,06,22,14.60
2018,07,16,06,23,14.60
2018,07,16,06,24,14.60
2018,07,16,06,25,14.60
2018,07,16,06,26,14.60
2018,07,16,06,27,14.70
2018,07,16,06,28,14.70
2018,07,16,06,29,14.70
2018,07,16,06,30,14.70
2018,07,16,06,31,14.70
2018,07,16,06,32,14.70
2018,07,16,06,33,14.70
2018,07,16,06,34,14.80
2018,07,16,06,35,14.80
2018,07,16,06,36,14.80
2018,07,16,06,37,14.80
2018,07,16,06,38,14.80
2018,07,16,06,39,14.80
2018,07,16,06,40,14.80
2018,07,16,06,41,14.80
2018,07,16,06,42,14.90
2018,07,16,06,43,15.00
2018,07,16,06,44,15.00
2018,07,16,06,45,15.10
2018,07,16,06,46,15.10
2018,07,16,06,47,15.20
2018,07,16,06,48,15.30
2018,07,16,06,49,15.30
2018,07,16,06,50,15.40
2018,07,16,06,51,15.50
2018,07,16,06,52,15.60
2018,07,16,06,53,15.60
2018,07,16,06,54,15.70
2018,07,16,06,55,15.80
2018,07,16,06,56,15.90
2018,07,16,06,57,16.00
2018,07,16,06,58,16.10
2018,07,16,06,59,16.20
2018,07,16,07,00,16.20
2018,07,16,07,01,16.30
2018,07,16,07,02,16.40
2018,07,16,07,03,16.40
2018,07,16,07,04,16.50
2018,07,16,07,05,16.60
2018,07,16,07,06,16.60
2018,07,16,07,07,16.70
2018,07,16,07,08,16.80
2018,07,16,07,09,16.90
2018,07,16,07,10,17.00
2018,07,16,07,11,17.00
2018,07,16,07,12,17.10
2018,07,16,07,13,17.20
2018,07,16,07,14,17.30
2018,07,16,07,15,17.40
2018,07,16,07,16,17.50
2018,07,16,07,17,17.50
2018,07,16,07,18,17.60
2018,07,16,07,19,17.70
2018,07,16,07,20,17.80
2018,07,16,07,21,17.90
2018,07,16,07,22,18.00
2018,07,16,07,23,18.10
2018,07,16,07,24,18.20
2018,07,16,07,25,18.30
2018,07,16,07,26,18.40
2018,07,16,07,27,18.50
2018,07,16,07,28,18.60
2018,07,16,07,29,18.70
2018,07,16,07,30,18.80
2018,07,16,07,31,18.90
2018,07,16,07,32,19.00
2018,07,16,07,33,19.10
2018,07,16,07,34,19.20
2018,07,16,07,35,19.30
2018,07,16,07,36,19.40
2018,07,16,07,37,19.50
2018,07,16,07,38,19.60
2018,07,16,07,39,19.70
2018,07,16,07,40,19.80
2018,07,16,07,41,19.90
2018,07,16,07,42,20.00
2018,07,16,07,43,20.10
2018,07,16,07,44,20.20
2018,07,16,07,45,20.20
2018,07,16,07,46,20.30
2018,07,16,07,47,20.40
2018,07,16,07,48,20.40
2018,07,16,07,49,20.50
2018,07,16,07,50,20.50
2018,07,16,07,51,20.60
2018,07,16,07,52,20.70
2018,07,16,07,53,20.70
2018,07,16,07,54,20.80
2018,07,16,07,55,20.80
2018,07,16,07,56,20.90
2018,07,16,07,57,20.90
2018,07,16,07,58,21.00
2018,07,16,07,59,21.10
2018,07,16,08,00,21.10
2018,07,16,08,01,21.20
2018,07,16,08,02,21.20
2018,07,16,08,03,21.30
2018,07,16,08,04,21.30
2018,07,16,08,05,21.40
2018,07,16,08,06,21.40
2018,07,16,08,07,21.50
2018,07,16,08,08,21.60
2018,07,16,08,09,21.60
2018,07,16,08,10,21.70
2018,07,16,08,11,21.70
2018,07,16,08,12,21.70
2018,07,16,08,13,21.70
2018,07,16,08,14,21.70
2018,07,16,08,15,21.70
2018,07,16,08,16,21.70
2018,07,16,08,17,21.80
2018,07,16,08,18,21.70
2018,07,16,08,19,21.70
2018,07,16,08,20,21.70
2018,07,16,08,21,21.70
2018,07,16,08,22,21.70
2018,07,16,08,23,21.70
2018,07,16,08,24,21.70
2018,07,16,08,25,21.70
2018,07,16,08,26,21.70
2018,07,16,08,27,21.70
2018,07,16,08,28,21.70
2018,07,16,08,29,21.80
2018,07,16,08,30,21.80
2018,07,16,08,31,21.70
2018,07,16,08,32,21.70
2018,07,16,08,33,21.60
2018,07,16,08,34,21.60
2018,07,16,08,35,21.50
2018,07,16,08,36,21.50
2018,07,16,08,37,21.50
2018,07,16,08,38,21.50
2018,07,16,08,39,21.50
2018,07,16,08,40,21.60
2018,07,16,08,41,21.60
2018,07,16,08,42,21.60
2018,07,16,08,43,21.60
2018,07,16,08,44,21.60
2018,07,16,08,45,21.60
2018,07,16,08,46,21.60
2018,07,16,08,47,21.60
2018,07,16,08,48,21.60
2018,07,16,08,49,21.60
2018,07,16,08,50,21.60
2018,07,16,08,51,21.70
2018,07,16,08,52,21.70
2018,07,16,08,53,21.80
2018,07,16,08,54,21.90
2018,07,16,08,55,22.00
2018,07,16,08,56,22.10
2018,07,16,08,57,22.30
2018,07,16,08,58,22.40
2018,07,16,08,59,22.50
2018,07,16,09,00,22.60
2018,07,16,09,01,22.70
2018,07,16,09,02,22.70
2018,07,16,09,03,22.70
2018,07,16,09,04,22.70
2018,07,16,09,05,22.70
2018,07,16,09,06,22.80
2018,07,16,09,07,22.70
2018,07,16,09,08,22.70
2018,07,16,09,09,22.70
2018,07,16,09,10,22.60
2018,07,16,09,11,22.60
2018,07,16,09,12,22.50
2018,07,16,09,13,22.40
2018,07,16,09,14,22.40
2018,07,16,09,15,22.40
2018,07,16,09,16,22.40
2018,07,16,09,17,22.40
2018,07,16,09,18,22.40
2018,07,16,09,19,22.40
2018,07,16,09,20,22.40
2018,07,16,09,21,22.40
2018,07,16,09,22,22.40
2018,07,16,09,23,22.30
2018,07,16,09,24,22.30
2018,07,16,09,25,22.30
2018,07,16,09,26,22.30
2018,07,16,09,27,22.40
2018,07,16,09,28,22.40
2018,07,16,09,29,22.40
2018,07,16,09,30,22.50
2018,07,16,09,31,22.60
2018,07,16,09,32,22.70
2018,07,16,09,33,22.80
2018,07,16,09,34,22.90
2018,07,16,09,35,22.90
2018,07,16,09,36,23.00
2018,07,16,09,37,23.00
2018,07,16,09,38,23.00
2018,07,16,09,39,23.10
2018,07,16,09,40,23.10
2018,07,16,09,41,23.20
2018,07,16,09,42,23.20
2018,07,16,09,43,23.30
2018,07,16,09,44,23.40
2018,07,16,09,45,23.40
2018,07,16,09,46,23.50
2018,07,16,09,47,23.60
2018,07,16,09,48,23.60
2018,07,16,09,49,23.60
2018,07,16,09,50,23.70
2018,07,16,09,51,23.70
2018,07,16,09,52,23.80
2018,07,16,09,53,23.80
2018,07,16,09,54,23.90
2018,07,16,09,55,24.00
2018,07,16,09,56,24.10
2018,07,16,09,57,24.10
2018,07,16,09,58,24.10
2018,07,16,09,59,24.10
2018,07,16,10,00,24.10
2018,07,16,10,01,24.20
2018,07,16,10,02,24.20
2018,07,16,10,03,24.10
2018,07,16,10,04,24.00
2018,07,16,10,05,23.90
2018,07,16,10,06,23.80
2018,07,16,10,07,23.70
2018,07,16,10,08,23.60
2018,07,16,10,09,23.60
2018,07,16,10,10,23.60
2018,07,16,10,11,23.60
2018,07,16,10,12,23.70
2018,07,16,10,13,23.70
2018,07,16,10,14,23.80
2018,07,16,10,15,23.80
2018,07,16,10,16,23.80
2018,07,16,10,17,23.80
2018,07,16,10,18,23.90
2018,07,16,10,19,23.90
2018,07,16,10,20,23.90
2018,07,16,10,21,23.90
2018,07,16,10,22,23.80
2018,07,16,10,23,23.70
2018,07,16,10,24,23.60
2018,07,16,10,25,23.50
2018,07,16,10,26,23.50
2018,07,16,10,27,23.50
2018,07,16,10,28,23.60
2018,07,16,10,29,23.60
2018,07,16,10,30,23.70
2018,07,16,10,31,23.80
2018,07,16,10,32,23.90
2018,07,16,10,33,24.00
2018,07,16,10,34,24.10
2018,07,16,10,35,24.10
2018,07,16,10,36,24.20
2018,07,16,10,37,24.20
2018,07,16,10,38,24.20
2018,07,16,10,39,24.20
2018,07,16,10,40,24.30
2018,07,16,10,41,24.30
2018,07,16,10,42,24.30
2018,07,16,10,43,24.30
2018,07,16,10,44,24.40
2018,07,16,10,45,24.40
2018,07,16,10,46,24.40
2018,07,16,10,47,24.40
2018,07,16,10,48,24.40
2018,07,16,10,49,24.50
2018,07,16,10,50,24.60
2018,07,16,10,51,24.60
2018,07,16,10,52,24.60
2018,07,16,10,53,24.60
2018,07,16,10,54,24.60
2018,07,16,10,55,24.60
2018,07,16,10,56,24.60
2018,07,16,10,57,24.60
2018,07,16,10,58,24.60
2018,07,16,10,59,24.50
2018,07,16,11,00,24.50
2018,07,16,11,01,24.40
2018,07,16,11,02,24.40
2018,07,16,11,03,24.40
2018,07,16,11,04,24.40
2018,07,16,11,05,24.30
2018,07,16,11,06,24.20
2018,07,16,11,07,24.10
2018,07,16,11,08,24.10
2018,07,16,11,09,24.00
2018,07,16,11,10,24.00
2018,07,16,11,11,24.10
2018,07,16,11,12,24.10
2018,07,16,11,13,24.20
2018,07,16,11,14,24.20
2018,07,16,11,15,24.20
2018,07,16,11,16,24.20
2018,07,16,11,17,24.30
2018,07,16,11,18,24.30
2018,07,16,11,19,24.40
2018,07,16,11,20,24.40
2018,07,16,11,21,24.40
2018,07,16,11,22,24.50
2018,07,16,11,23,24.50
2018,07,16,11,24,24.50
2018,07,16,11,25,24.50
2018,07,16,11,26,24.40
2018,07,16,11,27,24.40
2018,07,16,11,28,24.40
2018,07,16,11,29,24.40
2018,07,16,11,30,24.40
2018,07,16,11,31,24.30
2018,07,16,11,32,24.40
2018,07,16,11,33,24.40
2018,07,16,11,34,24.50
2018,07,16,11,35,24.50
2018,07,16,11,36,24.50
2018,07,16,11,37,24.40
2018,07,16,11,38,24.40
2018,07,16,11,39,24.40
2018,07,16,11,40,24.30
2018,07,16,11,41,24.30
2018,07,16,11,42,24.20
2018,07,16,11,43,24.20
2018,07,16,11,44,24.30
2018,07,16,11,45,24.30
2018,07,16,11,46,24.40
2018,07,16,11,47,24.40
2018,07,16,11,48,24.50
2018,07,16,11,49,24.60
2018,07,16,11,50,24.70
2018,07,16,11,51,24.80
2018,07,16,11,52,24.90
2018,07,16,11,53,25.00
2018,07,16,11,54,25.10
2018,07,16,11,55,25.20
2018,07,16,11,56,25.20
2018,07,16,11,57,25.20
2018,07,16,11,58,25.20
2018,07,16,11,59,25.30
2018,07,16,12,00,25.30
2018,07,16,12,01,25.40
2018,07,16,12,02,25.50
2018,07,16,12,03,25.60
2018,07,16,12,04,25.60
2018,07,16,12,05,25.70
2018,07,16,12,06,25.70
2018,07,16,12,07,25.70
2018,07,16,12,08,25.70
2018,07,16,12,09,25.60
2018,07,16,12,10,25.60
2018,07,16,12,11,25.60
2018,07,16,12,12,25.60
2018,07,16,12,13,25.60
2018,07,16,12,14,25.60
2018,07,16,12,15,25.70
2018,07,16,12,16,25.70
2018,07,16,12,17,25.80
2018,07,16,12,18,25.90
2018,07,16,12,19,26.00
2018,07,16,12,20,26.10
2018,07,16,12,21,26.10
2018,07,16,12,22,26.10
2018,07,16,12,23,26.10
2018,07,16,12,24,26.10
2018,07,16,12,25,26.10
2018,07,16,12,26,26.10
2018,07,16,12,27,26.20
2018,07,16,12,28,26.40
2018,07,16,12,29,26.40
2018,07,16,12,30,26.60
2018,07,16,12,31,26.60
2018,07,16,12,32,26.70
2018,07,16,12,33,26.80
2018,07,16,12,34,26.90
2018,07,16,12,35,26.90
2018,07,16,12,36,26.90
2018,07,16,12,37,26.90
2018,07,16,12,38,26.80
2018,07,16,12,39,26.80
2018,07,16,12,40,26.70
2018,07,16,12,41,26.60
2018,07,16,12,42,26.50
2018,07,16,12,43,26.40
2018,07,16,12,44,26.30
2018,07,16,12,45,26.30
2018,07,16,12,46,26.30
2018,07,16,12,47,26.40
2018,07,16,12,48,26.40
2018,07,16,12,49,26.50
2018,07,16,12,50,26.50
2018,07,16,12,51,26.50
2018,07,16,12,52,26.50
2018,07,16,12,53,26.50
2018,07,16,12,54,26.60
2018,07,16,12,55,26.60
2018,07,16,12,56,26.60
2018,07,16,12,57,26.60
2018,07,16,12,58,26.60
2018,07,16,12,59,26.60
2018,07,16,13,00,26.60
2018,07,16,13,01,26.60
2018,07,16,13,02,26.60
2018,07,16,13,03,26.60
2018,07,16,13,04,26.70
2018,07,16,13,05,26.70
2018,07,16,13,06,26.70
2018,07,16,13,07,26.70
2018,07,16,13,08,26.70
2018,07,16,13,09,26.70
2018,07,16,13,10,26.70
2018,07,16,13,11,26.80
2018,07,16,13,12,26.80
2018,07,16,13,13,26.80
2018,07,16,13,14,26.90
2018,07,16,13,15,27.00
2018,07,16,13,16,27.10
2018,07,16,13,17,27.20
2018,07,16,13,18,27.30
2018,07,16,13,19,27.40
2018,07,16,13,20,27.40
2018,07,16,13,21,27.50
2018,07,16,13,22,27.60
2018,07,16,13,23,27.70
2018,07,16,13,24,27.80
2018,07,16,13,25,27.90
2018,07,16,13,26,28.10
2018,07,16,13,27,28.10
2018,07,16,13,28,28.20
2018,07,16,13,29,28.20
2018,07,16,13,30,28.10
2018,07,16,13,31,28.10
2018,07,16,13,32,28.20
2018,07,16,13,33,28.20
2018,07,16,13,34,28.30
2018,07,16,13,35,28.30
2018,07,16,13,36,28.30
2018,07,16,13,37,28.30
2018,07,16,13,38,28.30
2018,07,16,13,39,28.30
2018,07,16,13,40,28.30
2018,07,16,13,41,28.30
2018,07,16,13,42,28.20
2018,07,16,13,43,28.20
2018,07,16,13,44,28.20
2018,07,16,13,45,28.30
2018,07,16,13,46,28.40
2018,07,16,13,47,28.50
2018,07,16,13,48,28.50
2018,07,16,13,49,28.50
2018,07,16,13,50,28.50
2018,07,16,13,51,28.40
2018,07,16,13,52,28.40
2018,07,16,13,53,28.40
2018,07,16,13,54,28.40
2018,07,16,13,55,28.40
2018,07,16,13,56,28.40
2018,07,16,13,57,28.40
2018,07,16,13,58,28.40
2018,07,16,13,59,28.40
2018,07,16,14,00,28.40
2018,07,16,14,01,28.40
2018,07,16,14,02,28.40
2018,07,16,14,03,28.50
2018,07,16,14,04,28.50
2018,07,16,14,05,28.60
2018,07,16,14,06,28.60
2018,07,16,14,07,28.60
2018,07,16,14,08,28.60
2018,07,16,14,09,28.70
2018,07,16,14,10,28.80
2018,07,16,14,11,28.90
2018,07,16,14,12,28.90
2018,07,16,14,13,29.00
2018,07,16,14,14,29.10
2018,07,16,14,15,29.10
2018,07,16,14,16,29.20
2018,07,16,14,17,29.30
2018,07,16,14,18,29.30
2018,07,16,14,19,29.30
2018,07,16,14,20,29.40
2018,07,16,14,21,29.30
2018,07,16,14,22,29.20
2018,07,16,14,23,29.10
2018,07,16,14,24,28.90
2018,07,16,14,25,28.80
2018,07,16,14,26,28.80
2018,07,16,14,27,28.80
2018,07,16,14,28,28.90
2018,07,16,14,29,28.90
2018,07,16,14,30,28.90
2018,07,16,14,31,28.90
2018,07,16,14,32,28.90
2018,07,16,14,33,28.90
2018,07,16,14,34,29.00
2018,07,16,14,35,29.10
2018,07,16,14,36,29.20
2018,07,16,14,37,29.30
2018,07,16,14,38,29.40
2018,07,16,14,39,29.40
2018,07,16,14,40,29.30
2018,07,16,14,41,29.30
2018,07,16,14,42,29.20
2018,07,16,14,43,29.20
2018,07,16,14,44,29.20
2018,07,16,14,45,29.20
2018,07,16,14,46,29.20
2018,07,16,14,47,29.20
2018,07,16,14,48,29.30
2018,07,16,14,49,29.40
2018,07,16,14,50,29.40
2018,07,16,14,51,29.50
2018,07,16,14,52,29.60
2018,07,16,14,53,29.70
2018,07,16,14,54,29.80
2018,07,16,14,55,29.80
2018,07,16,14,56,29.90
2018,07,16,14,57,29.80
2018,07,16,14,58,29.80
2018,07,16,14,59,29.80
2018,07,16,15,00,29.80
2018,07,16,15,01,29.80
2018,07,16,15,02,29.70
2018,07,16,15,03,29.70
2018,07,16,15,04,29.60
2018,07,16,15,05,29.60
2018,07,16,15,06,29.60
2018,07,16,15,07,29.60
2018,07,16,15,08,29.60
2018,07,16,15,09,29.60
2018,07,16,15,10,29.70
2018,07,16,15,11,29.80
2018,07,16,15,12,29.90
2018,07,16,15,13,30.10
2018,07,16,15,14,30.20
2018,07,16,15,15,30.40
2018,07,16,15,16,30.50
2018,07,16,15,17,30.60
2018,07,16,15,18,30.70
2018,07,16,15,19,30.70
2018,07,16,15,20,30.80
2018,07,16,15,21,30.90
2018,07,16,15,22,31.00
2018,07,16,15,23,31.10
2018,07,16,15,24,31.20
2018,07,16,15,25,31.20
2018,07,16,15,26,31.30
2018,07,16,15,27,31.30
2018,07,16,15,28,31.20
2018,07,16,15,29,31.20
2018,07,16,15,30,31.20
2018,07,16,15,31,31.20
2018,07,16,15,32,31.20
2018,07,16,15,33,31.10
2018,07,16,15,34,31.00
2018,07,16,15,35,31.00
2018,07,16,15,36,30.90
2018,07,16,15,37,30.80
2018,07,16,15,38,30.80
2018,07,16,15,39,30.80
2018,07,16,15,40,30.80
2018,07,16,15,41,30.80
2018,07,16,15,42,30.80
2018,07,16,15,43,30.80
2018,07,16,15,44,30.80
2018,07,16,15,45,30.80
2018,07,16,15,46,30.80
2018,07,16,15,47,30.90
2018,07,16,15,48,30.90
2018,07,16,15,49,31.00
2018,07,16,15,50,31.00
2018,07,16,15,51,31.10
2018,07,16,15,52,31.10
2018,07,16,15,53,31.00
2018,07,16,15,54,31.00
2018,07,16,15,55,30.90
2018,07,16,15,56,30.90
2018,07,16,15,57,31.00
2018,07,16,15,58,31.00
2018,07,16,15,59,31.10
2018,07,16,16,00,31.10
2018,07,16,16,01,31.10
2018,07,16,16,02,31.10
2018,07,16,16,03,31.10
2018,07,16,16,04,31.10
2018,07,16,16,05,31.00
2018,07,16,16,06,31.00
2018,07,16,16,07,31.00
2018,07,16,16,08,31.10
2018,07,16,16,09,31.10
2018,07,16,16,10,31.10
2018,07,16,16,11,31.10
2018,07,16,16,12,31.10
2018,07,16,16,13,31.10
2018,07,16,16,14,31.00
2018,07,16,16,15,31.00
2018,07,16,16,16,30.90
2018,07,16,16,17,30.90
2018,07,16,16,18,30.90
2018,07,16,16,19,30.90
2018,07,16,16,20,30.90
2018,07,16,16,21,30.80
2018,07,16,16,22,30.80
2018,07,16,16,23,30.80
2018,07,16,16,24,30.80
2018,07,16,16,25,30.70
2018,07,16,16,26,30.70
2018,07,16,16,27,30.70
2018,07,16,16,28,30.60
2018,07,16,16,29,30.60
2018,07,16,16,30,30.60
2018,07,16,16,31,30.50
2018,07,16,16,32,30.50
2018,07,16,16,33,30.40
2018,07,16,16,34,30.30
2018,07,16,16,35,30.30
2018,07,16,16,36,30.30
2018,07,16,16,37,30.30
2018,07,16,16,38,30.40
2018,07,16,16,39,30.40
2018,07,16,16,40,30.40
2018,07,16,16,41,30.40
2018,07,16,16,42,30.40
2018,07,16,16,43,30.40
2018,07,16,16,44,30.40
2018,07,16,16,45,30.50
2018,07,16,16,46,30.50
2018,07,16,16,47,30.60
2018,07,16,16,48,30.60
2018,07,16,16,49,30.60
2018,07,16,16,50,30.60
2018,07,16,16,51,30.60
2018,07,16,16,52,30.60
2018,07,16,16,53,30.60
2018,07,16,16,54,30.60
2018,07,16,16,55,30.60
2018,07,16,16,56,30.60
2018,07,16,16,57,30.60
2018,07,16,16,58,30.60
2018,07,16,16,59,30.60
2018,07,16,17,00,30.60
2018,07,16,17,01,30.60
2018,07,16,17,02,30.60
2018,07,16,17,03,30.60
2018,07,16,17,04,30.60
2018,07,16,17,05,30.60
2018,07,16,17,06,30.60
2018,07,16,17,07,30.60
2018,07,16,17,08,30.60
2018,07,16,17,09,30.70
2018,07,16,17,10,30.70
2018,07,16,17,11,30.70
2018,07,16,17,12,30.70
2018,07,16,17,13,30.60
2018,07,16,17,14,30.60
2018,07,16,17,15,30.60
2018,07,16,17,16,30.60
2018,07,16,17,17,30.60
2018,07,16,17,18,30.60
2018,07,16,17,19,30.70
2018,07,16,17,20,30.60
2018,07,16,17,21,30.60
2018,07,16,17,22,30.60
2018,07,16,17,23,30.60
2018,07,16,17,24,30.60
2018,07,16,17,25,30.60
2018,07,16,17,26,30.60
2018,07,16,17,27,30.50
2018,07,16,17,28,30.50
2018,07,16,17,29,30.40
2018,07,16,17,30,30.40
2018,07,16,17,31,30.40
2018,07,16,17,32,30.40
2018,07,16,17,33,30.30
2018,07,16,17,34,30.40
2018,07,16,17,35,30.40
2018,07,16,17,36,30.40
2018,07,16,17,37,30.40
2018,07,16,17,38,30.40
2018,07,16,17,39,30.50
2018,07,16,17,40,30.50
2018,07,16,17,41,30.50
2018,07,16,17,42,30.40
2018,07,16,17,43,30.40
2018,07,16,17,44,30.40
2018,07,16,17,45,30.40
2018,07,16,17,46,30.40
2018,07,16,17,47,30.30
2018,07,16,17,48,30.30
2018,07,16,17,49,30.30
2018,07,16,17,50,30.20
2018,07,16,17,51,30.20
2018,07,16,17,52,30.20
2018,07,16,17,53,30.10
2018,07,16,17,54,30.10
2018,07,16,17,55,30.00
2018,07,16,17,56,29.90
2018,07,16,17,57,29.90
2018,07,16,17,58,29.90
2018,07,16,17,59,29.90
2018,07,16,18,00,29.90
2018,07,16,18,01,29.90
2018,07,16,18,02,29.90
2018,07,16,18,03,29.80
2018,07,16,18,04,29.80
2018,07,16,18,05,29.80
2018,07,16,18,06,29.70
2018,07,16,18,07,29.60
2018,07,16,18,08,29.50
2018,07,16,18,09,29.40
2018,07,16,18,10,29.30
2018,07,16,18,11,29.30
2018,07,16,18,12,29.20
2018,07,16,18,13,29.20
2018,07,16,18,14,29.10
2018,07,16,18,15,29.00
2018,07,16,18,16,28.90
2018,07,16,18,17,28.90
2018,07,16,18,18,28.90
2018,07,16,18,19,28.80